User: anonymous   Login
Location: La Comballaz
(46.3780°N, 7.0817°E)
Time: 18:06:29
(UTC+00:00)
Language:

ITUPSAT 1 - Orbit

View from above orbital plane
View from above orbital plane
View from above satellite
View from above satellite

Ground track
Ground track

The orbit data is extracted from the following two-line orbital elements,

1 35935U 09051E   24106.16860548  .00001481  00000-0  33636-3 0  9999
2 35935  98.4824 349.0142 0008039 163.1179 197.0288 14.57518509773112
Epoch (UTC): 15 April 2024 04:02:47
Eccentricity: 0.0008039
inclination: 98.4824°
perigee height: 695 km
apogee height: 707 km
right ascension of ascending node: 349.0142°
argument of perigee: 163.1179°
revolutions per day: 14.57518509
mean anomaly at epoch: 197.0288°
orbit number at epoch: 77311

The dashed part of the orbit path shows where the satellite is in the earth's shadow,  

DLR